Location: Conflandey
(47.7287°N, 6.0456°E)
Time: 04:05:10
(UTC+00:00)

COSMO-SKYMED 1 - Pass Details

Date: 24 October 2021
Orbit: 621 x 623 km, 97.9° (Epoch: 05 December)

Event Time Altitude Azimuth Distance (km) Brightness Sun altitude
Rises 17:49:50 0° 13° (NNE) 2,917 5.9 -13.9°
Reaches altitude 10° 17:52:02 10° 13° (NNE) 2,005 5.0 -14.2°
Maximum altitude 17:56:25 89° 104° (ESE) 630 2.5 -15.0°
Drops below altitude 10° 18:00:45 10° 195° (SSW) 1,988 5.3 -15.7°
Sets 18:02:56 0° 195° (SSW) 2,889 6.2 -16.1°
